Jackson, MI

12:39 AM EST on December 06, 2019 (GMT -0500)
Jackson County-Reynolds

Weather History for KJXN - November, 2019

Change the Weather History Date:

Tuesday, November 19, 2019

  Actual Average Record
Temperature  
Mean Temperature 34 °F 38 °F  
Max Temperature 41 °F 46 °F 69 °F (1953)
Min Temperature 26 °F 31 °F 9 °F (1986)
Degree Days  
Heating Degree Days 32 27  
Month to date heating degree days 638 436  
Since 1 July heating degree days 1127 1084  
Cooling Degree Days 0 0  
Month to date cooling degree days 0 0  
Year to date cooling degree days 663 592  
Moisture  
Dew Point 32 °F    
Average Humidity 88    
Maximum Humidity 100    
Minimum Humidity 70    
Precipitation  
Precipitation 0.00 in 0.09 in 0.89 in (1948)
Month to date precipitation 0.61 1.69  
Year to date precipitation 32.52 28.72  
Sea Level Pressure  
Sea Level Pressure 29.81 in    
Wind  
Wind Speed 3 mph ()    
Max Wind Speed 8 mph    
Max Gust Speed 12 mph    
Visibility 3.6 miles    
Events Fog    
T = Trace of Precipitation, MM = Missing Value Source: Averaged Metar Reports

Daily Weather History Graph

Daily Weather History Graph

Search for Another Location

Airport or City:

Astronomy

Nov. 19, 2019 Rise Set
Actual Time 7:33 AM EST 5:12 PM EST
Civil Twilight 7:02 AM EST 5:43 PM EST
Nautical Twilight 6:28 AM EST 6:17 PM EST
Astronomical Twilight 5:55 AM EST 6:50 PM EST
Moon No Moon Rise 1:42 PM EST (11/19)
Length of Visible Light 10h 40m
Length of Day
9h 39m
Waning Gibbous, 52% of the Moon is Illuminated
Nov 19
Waning Gibbous
Nov 19
Last Quarter
Nov 26
New
Dec 4
First Quarter
Dec 12
Full

Hourly Weather History & Observations

Time (EST) Temp. Windchill Dew Point Humidity Pressure Visibility Wind Dir Wind Speed Gust Speed Precip Events Conditions
12:24 AM 27.0 °F 23.0 °F 25.0 °F 92% 29.74 in 3.0 mi SW 3.5 mph - N/A   Mostly Cloudy
12:33 AM 28.0 °F 22.8 °F 26.1 °F 92% 29.74 in 3.0 mi SSW 4.6 mph - N/A   Overcast
12:56 AM 30.9 °F 27.5 °F 28.9 °F 92% 29.76 in 3.0 mi South 3.5 mph - N/A   Overcast
12:58 AM 32.0 °F 28.7 °F 28.9 °F 88% 29.74 in 2.5 mi SSW 3.5 mph - N/A   Overcast
1:37 AM 33.1 °F 30.0 °F 30.9 °F 92% 29.74 in 0.8 mi WSW 3.5 mph - N/A   Mist
1:56 AM 33.1 °F - 30.9 °F 92% 29.76 in 0.2 mi Calm Calm - N/A Fog Fog
2:19 AM 33.1 °F - 32.0 °F 96% 29.74 in 0.2 mi Calm Calm - N/A Fog Fog
2:56 AM 34.0 °F - 33.1 °F 96% 29.76 in 0.2 mi Calm Calm - N/A Fog Fog
3:25 AM 34.0 °F - 33.1 °F 96% 29.74 in 0.2 mi Calm Calm - N/A Fog Fog
3:56 AM 35.1 °F 31.0 °F 33.1 °F 92% 29.76 in 0.2 mi SW 4.6 mph - N/A Fog Fog
4:51 AM 35.6 °F 32.8 °F 33.8 °F 93% 29.74 in 0.5 mi SW 3.5 mph - N/A Fog Fog
4:56 AM 35.1 °F - 34.0 °F 96% 29.76 in 0.8 mi Calm Calm - N/A   Overcast
5:30 AM 36.0 °F - 35.1 °F 97% 29.74 in 0.5 mi Calm Calm - N/A Fog Fog
5:40 AM 36.0 °F - 34.0 °F 93% 29.74 in 0.2 mi Calm Calm - N/A Fog Fog
5:56 AM 36.0 °F 33.3 °F 34.0 °F 93% 29.77 in 0.2 mi SSW 3.5 mph - N/A Fog Fog
6:49 AM 36.0 °F 33.3 °F 35.1 °F 97% 29.75 in 0.5 mi SSW 3.5 mph - N/A Fog Fog
6:56 AM 36.0 °F 33.3 °F 35.1 °F 97% 29.78 in 0.5 mi SW 3.5 mph - N/A Fog Fog
7:11 AM 36.0 °F 33.3 °F 34.0 °F 93% 29.76 in 0.2 mi WSW 3.5 mph - N/A Fog Fog
7:56 AM 36.0 °F 33.3 °F 35.1 °F 97% 29.81 in 0.2 mi WSW 3.5 mph - N/A Fog Fog
8:08 AM 36.0 °F 32.1 °F 35.1 °F 97% 29.78 in 0.5 mi WSW 4.6 mph - N/A Fog Fog
8:15 AM 36.0 °F 29.6 °F 34.0 °F 93% 29.78 in 0.2 mi WSW 8.1 mph - N/A Fog Fog
8:24 AM 36.0 °F 33.3 °F 35.1 °F 97% 29.78 in 0.8 mi WSW 3.5 mph - N/A   Overcast
8:33 AM 36.0 °F 33.3 °F 35.1 °F 97% 29.78 in 1.2 mi SW 3.5 mph - N/A   Overcast
9:16 AM 37.0 °F 34.5 °F 35.1 °F 93% 29.79 in 2.0 mi SW 3.5 mph - N/A   Overcast
9:30 AM 37.0 °F 33.3 °F 35.1 °F 93% 29.79 in 2.0 mi SW 4.6 mph - N/A   Overcast
9:56 AM 37.0 °F 33.3 °F 35.1 °F 93% 29.83 in 2.5 mi SW 4.6 mph - N/A   Overcast
10:18 AM 37.0 °F 33.3 °F 35.1 °F 93% 29.79 in 3.0 mi SW 4.6 mph - N/A   Overcast
10:56 AM 39.0 °F 36.8 °F 34.0 °F 82% 29.83 in 4.0 mi SW 3.5 mph - N/A   Haze
11:08 AM 39.0 °F 35.7 °F 34.0 °F 82% 29.80 in 5.0 mi WSW 4.6 mph - N/A   Haze
11:23 AM 39.0 °F 34.8 °F 33.1 °F 79% 29.80 in 5.0 mi SW 5.8 mph - N/A   Haze
11:56 AM 39.0 °F 34.8 °F 33.1 °F 79% 29.83 in 6.0 mi SW 5.8 mph - N/A   Haze
12:56 PM 39.9 °F 35.1 °F 33.1 °F 77% 29.83 in 7.0 mi SW 6.9 mph - N/A   Overcast
1:56 PM 41.0 °F 37.1 °F 33.1 °F 73% 29.83 in 8.0 mi SW 5.8 mph - N/A   Overcast
2:07 PM 39.9 °F 35.8 °F 33.1 °F 77% 29.81 in 8.0 mi SSW 5.8 mph - N/A   Overcast
2:21 PM 39.9 °F 36.7 °F 32.0 °F 73% 29.81 in 8.0 mi WSW 4.6 mph - N/A   Overcast
2:56 PM 39.9 °F 36.7 °F 32.0 °F 73% 29.84 in 9.0 mi WSW 4.6 mph - N/A   Overcast
3:56 PM 39.9 °F 36.7 °F 30.9 °F 70% 29.86 in 10.0 mi WSW 4.6 mph - N/A   Overcast
4:56 PM 39.9 °F - 30.9 °F 70% 29.88 in 10.0 mi Calm Calm - N/A   Overcast
5:56 PM 36.0 °F - 30.0 °F 79% 29.91 in 10.0 mi Calm Calm - N/A   Mostly Cloudy
6:56 PM 36.0 °F - 30.9 °F 82% 29.93 in 9.0 mi Calm Calm - N/A   Overcast
7:56 PM 34.0 °F 31.0 °F 30.0 °F 85% 29.95 in 8.0 mi SSW 3.5 mph - N/A   Overcast
8:56 PM 33.1 °F - 28.9 °F 85% 29.96 in 8.0 mi Calm Calm - N/A   Clear
9:56 PM 30.0 °F - 27.0 °F 88% 29.98 in 6.0 mi Calm Calm - N/A   Overcast
10:56 PM 30.9 °F 27.5 °F 28.0 °F 89% 29.99 in 6.0 mi SW 3.5 mph - N/A   Overcast
11:56 PM 30.9 °F 27.5 °F 28.9 °F 92% 30.00 in 6.0 mi SW 3.5 mph - N/A   Overcast